TimeMDT,TemperatureF,Dew PointF,Humidity,Sea Level PressureIn,VisibilityMPH,Wind Direction,Wind SpeedMPH,Gust SpeedMPH,PrecipitationIn,Events,Conditions,WindDirDegrees,DateUTC
12:53 AM,52.0,9.0,18,29.70,10.0,WSW,5.8,-,N/A,,Scattered Clouds,240,2012-10-09 06:53:00
1:53 AM,48.2,10.4,22,29.89,10.0,SW,9.2,-,N/A,,Scattered Clouds,220,2012-10-09 07:53:00
2:53 AM,53.1,10.9,19,29.72,10.0,NNW,15.0,20.7,N/A,,Mostly Cloudy,340,2012-10-09 08:53:00
3:10 AM,44.6,15.8,31,29.92,10.0,NNE,15.0,-,N/A,,Mostly Cloudy,20,2012-10-09 09:10:00
3:53 AM,39.0,24.1,55,29.79,10.0,NNE,9.2,-,N/A,,Mostly Cloudy,20,2012-10-09 09:53:00
4:53 AM,37.0,26.1,65,29.82,10.0,NNE,4.6,-,N/A,,Mostly Cloudy,30,2012-10-09 10:53:00
5:53 AM,36.0,27.0,70,29.89,10.0,West,4.6,-,N/A,,Mostly Cloudy,280,2012-10-09 11:53:00
6:53 AM,35.1,27.0,72,29.96,10.0,WSW,4.6,-,N/A,,Scattered Clouds,250,2012-10-09 12:53:00
7:35 AM,35.6,28.4,75,30.04,7.0,Calm,Calm,-,N/A,,Mostly Cloudy,0,2012-10-09 13:35:00
7:53 AM,37.0,28.9,73,29.97,9.0,Calm,Calm,-,N/A,,Mostly Cloudy,0,2012-10-09 13:53:00
8:53 AM,37.9,30.0,73,30.02,10.0,ENE,3.5,-,N/A,,Overcast,70,2012-10-09 14:53:00
9:53 AM,41.0,32.0,70,30.02,8.0,SE,4.6,-,N/A,,Mostly Cloudy,130,2012-10-09 15:53:00
10:25 AM,41.0,33.8,76,30.10,9.0,East,5.8,-,N/A,,Overcast,90,2012-10-09 16:25:00
10:53 AM,41.0,33.1,73,30.00,9.0,East,6.9,-,N/A,,Overcast,80,2012-10-09 16:53:00
11:53 AM,42.1,33.1,70,30.04,8.0,East,5.8,-,N/A,,Overcast,100,2012-10-09 17:53:00
12:40 PM,42.8,33.8,70,30.10,8.0,ENE,5.8,-,N/A,,Overcast,60,2012-10-09 18:40:00
12:53 PM,43.0,33.1,68,30.01,9.0,East,5.8,-,N/A,,Overcast,90,2012-10-09 18:53:00
1:53 PM,43.0,34.0,71,30.03,10.0,East,4.6,-,N/A,,Overcast,100,2012-10-09 19:53:00
2:53 PM,45.0,33.1,63,30.02,10.0,East,4.6,-,N/A,,Overcast,80,2012-10-09 20:53:00
3:53 PM,45.0,33.1,63,30.08,10.0,Variable,4.6,-,N/A,,Overcast,0,2012-10-09 21:53:00
4:53 PM,45.0,34.0,65,30.10,10.0,East,4.6,-,N/A,,Overcast,100,2012-10-09 22:53:00
5:30 PM,44.6,33.8,66,30.15,10.0,ESE,3.5,-,N/A,,Overcast,110,2012-10-09 23:30:00
5:53 PM,45.0,33.1,63,30.12,10.0,ESE,3.5,-,N/A,,Overcast,110,2012-10-09 23:53:00
6:40 PM,44.6,33.8,66,30.17,10.0,East,3.5,-,N/A,,Overcast,80,2012-10-10 00:40:00
6:53 PM,45.0,34.0,65,30.15,10.0,East,3.5,-,N/A,,Overcast,80,2012-10-10 00:53:00
7:53 PM,44.1,34.0,68,30.16,10.0,ESE,4.6,-,N/A,,Overcast,110,2012-10-10 01:53:00
8:32 PM,44.6,33.8,66,30.20,10.0,ESE,9.2,-,N/A,,Overcast,110,2012-10-10 02:32:00
8:53 PM,44.1,34.0,68,30.18,10.0,ESE,6.9,-,N/A,,Overcast,120,2012-10-10 02:53:00
9:53 PM,43.0,33.1,68,30.18,10.0,SSE,8.1,-,N/A,,Overcast,150,2012-10-10 03:53:00
10:53 PM,42.1,33.1,70,30.17,10.0,South,12.7,-,N/A,,Overcast,170,2012-10-10 04:53:00
11:53 PM,41.0,32.0,70,30.15,10.0,South,11.5,-,N/A,,Mostly Cloudy,180,2012-10-10 05:53:00